GFSNW_sfc_rhum_174.txt.gz
RH
79 84 82 82 83 84 82 89 82 89 86 89 96 87 72 62 60 64 64 72 66 71 63 60 58 63 55 61 66 61 53 58 93 86 80 84 72 68 60 69 55 62 57 62
83 87 85 83 83 83 94 89 91 89 83 91 91 68 65 64 61 62 62 65 62 60 62 62 59 61 54 61 63 66 54 56 72 76 68 61 69 74 61 50 52 50 42 45
83 88 89 88 85 81 90 83 86 91 94 89 74 71 62 61 62 59 58 59 57 61 56 57 60 54 56 60 61 61 57 55 45 53 48 58 68 54 58 51 62 51 46 48
81 88 90 90 89 85 94 81 68 79 88 77 71 68 64 52 54 63 58 62 62 67 69 63 69 61 56 51 54 61 52 48 63 54 49 49 50 53 48 48 44 52 39 51
80 87 91 91 88 87 96 83 68 76 60 61 60 65 61 53 55 55 58 63 61 64 64 66 68 76 75 74 63 58 52 51 53 44 43 45 46 55 46 47 47 44 46 47
82 88 91 92 86 85 95 88 83 59 61 62 62 63 57 55 56 58 60 63 71 70 58 68 72 72 72 74 78 67 56 56 64 40 60 52 36 42 49 50 59 40 38 38
84 88 93 93 85 90 85 84 82 72 58 62 56 56 57 58 61 66 70 74 73 69 73 72 73 73 72 73 75 75 57 66 75 74 56 50 50 46 46 45 49 49 47 52
86 90 94 92 84 86 88 94 83 71 60 58 55 58 60 71 72 74 74 72 67 74 70 61 58 65 66 63 73 77 68 67 68 72 62 48 56 40 44 37 44 44 47 52
87 92 95 92 82 83 86 95 93 75 63 57 50 56 61 64 74 74 77 77 73 71 68 61 53 45 66 53 61 79 66 65 57 63 40 39 51 59 45 57 40 41 48 52
90 94 95 92 83 84 85 91 92 80 58 66 60 58 61 64 73 69 81 78 77 73 72 62 61 58 67 50 63 68 67 73 55 75 51 36 44 50 56 47 34 43 46 53
93 95 96 91 84 85 85 93 94 80 68 79 75 64 64 66 68 60 66 62 65 75 60 61 68 71 65 68 63 70 50 53 58 73 60 38 46 56 53 32 61 51 49 55
96 97 97 92 85 85 84 95 92 88 72 74 86 81 80 76 70 69 78 55 70 66 72 81 84 70 78 61 38 68 51 49 51 48 40 40 51 51 60 51 44 56 54 57
96 98 97 93 86 82 84 96 96 88 87 90 89 88 82 73 76 77 66 78 72 76 77 77 76 69 68 59 60 66 64 67 62 46 53 53 52 62 53 66 64 57 57 57
97 97 97 94 89 86 83 92 96 87 85 87 84 77 84 81 77 77 78 75 80 78 83 77 74 65 64 62 59 58 51 64 58 57 47 54 44 53 60 51 61 58 64 63
95 95 97 93 90 87 88 93 96 87 82 90 93 87 87 84 80 83 83 78 80 84 80 85 76 83 80 87 83 78 64 53 50 48 42 40 45 49 59 52 50 56 62 73
94 97 95 93 91 88 91 95 97 90 87 91 97 92 90 88 86 86 86 88 91 90 81 84 91 88 82 87 79 53 65 57 50 46 63 47 46 47 64 66 56 63 68 69
83 86 96 95 94 97 96 93 93 91 90 90 99 99 88 90 91 94 93 92 95 92 92 93 93 92 90 92 85 53 63 66 68 74 70 69 71 62 62 72 76 72 71 70
78 81 89 96 92 94 96 99 91 89 94 95 100 100 96 88 96 94 97 96 95 94 94 96 94 94 94 94 77 72 73 69 72 70 71 66 70 73 77 78 72 71 69 66
77 85 94 95 97 99 99 97 94 97 92 100 100 99 99 93 98 94 96 95 95 96 96 96 94 96 97 88 82 80 81 83 77 80 80 75 77 74 80 77 76 74 73 66
80 85 86 97 100 96 98 97 99 100 100 100 100 94 99 95 98 99 97 97 98 99 96 96 91 87 83 81 78 78 87 83 85 90 82 82 82 79 81 80 75 72 73 72
93 97 99 98 96 93 97 100 100 100 100 99 99 95 98 95 97 97 95 98 98 98 95 97 94 97 84 80 81 78 88 84 90 90 87 87 82 81 82 81 78 76 79 75
93 95 96 96 99 100 99 99 100 99 98 100 99 98 88 96 94 98 99 99 99 97 95 97 90 91 80 87 84 84 88 82 84 83 82 81 79 82 83 80 79 77 76 76
84 93 99 99 99 98 98 97 99 99 99 100 99 99 99 100 100 100 99 98 98 96 97 94 93 84 86 90 87 87 85 77 78 76 79 83 80 69 70 69 68 69 68 69
94 93 97 97 97 98 97 97 98 99 99 99 99 99 99 100 99 99 98 97 95 98 98 96 95 89 91 90 84 86 87 81 79 85 87 89 77 68 66 66 68 66 66 64
96 90 97 97 96 98 98 98 99 99 100 100 100 100 99 99 99 98 97 98 97 94 96 98 95 90 92 89 88 89 89 86 82 79 89 88 88 68 68 68 66 64 65 64
91 92 95 93 98 98 96 96 96 97 95 99 99 99 99 98 98 97 97 96 93 97 98 97 93 88 89 89 88 85 86 78 73 75 74 89 83 68 68 73 68 65 62 60
89 94 91 97 98 98 96 92 82 89 84 92 94 95 97 96 97 98 96 96 95 96 94 97 88 88 89 89 80 74 76 76 72 75 73 81 92 94 88 79 64 64 62 73

GFSNW_sfc_rhum_180.txt.gz
RH
89 86 83 76 78 84 80 77 68 78 69 65 62 70 63 58 46 52 51 50 45 48 47 44 42 42 38 40 46 54 45 48 62 63 62 64 72 71 57 58 59 66 80 64
85 89 85 81 81 85 73 68 70 75 70 69 65 60 58 50 52 48 52 53 52 48 45 45 41 42 39 46 49 48 40 44 57 60 62 63 75 69 60 45 40 47 57 31
83 87 87 85 83 84 75 65 77 81 79 72 62 56 51 51 54 45 49 44 45 48 45 42 43 42 42 43 46 57 45 45 43 44 38 57 72 67 62 58 58 47 44 29
78 83 91 87 86 88 74 67 54 60 85 78 65 53 49 48 43 52 46 45 45 42 40 40 44 41 37 43 46 53 47 52 48 37 35 36 43 54 67 68 57 44 32 35
72 80 82 89 88 90 88 71 62 58 54 55 68 65 52 49 42 44 45 50 42 44 43 32 33 40 41 40 46 40 42 50 42 52 35 35 38 36 40 47 44 49 47 45
71 77 82 86 89 91 93 70 69 55 53 49 53 52 49 43 42 45 38 42 42 50 44 39 38 38 44 48 50 49 45 45 45 40 39 38 35 27 37 35 31 29 32 26
72 76 80 83 89 92 68 69 60 57 55 47 45 43 45 45 49 39 50 48 43 42 46 46 47 48 49 49 49 50 48 44 51 61 39 45 32 28 32 32 32 27 28 31
72 74 77 82 83 93 87 70 65 62 53 44 41 45 46 46 48 52 53 52 43 45 43 43 40 42 44 44 50 52 52 45 49 56 38 28 32 26 31 28 28 25 28 32
79 80 78 75 82 84 95 80 74 66 63 45 34 42 44 44 48 53 58 60 54 48 43 41 38 27 34 34 41 53 52 49 46 38 38 29 30 29 26 28 23 29 29 34
77 79 80 79 80 82 94 91 75 75 71 45 42 42 48 43 45 47 61 66 61 53 46 41 38 35 41 35 33 46 47 44 42 35 38 25 25 29 32 25 27 33 30 34
78 80 81 80 80 82 90 89 78 84 75 48 55 46 51 54 48 47 58 57 60 58 48 41 38 44 37 43 35 38 33 34 32 40 37 48 31 33 26 26 32 32 33 36
88 87 85 80 78 81 86 95 78 75 75 69 70 64 63 58 54 51 62 48 55 52 46 50 50 49 50 36 24 39 36 33 33 32 28 32 35 31 32 33 31 33 33 37
88 88 88 81 79 82 85 95 90 88 86 78 74 68 66 63 65 65 58 64 55 56 59 54 55 45 43 36 35 38 36 42 41 38 32 35 35 36 33 32 32 34 35 34
90 90 88 79 80 82 87 93 91 80 84 86 77 67 70 66 64 64 66 62 65 63 63 61 55 46 48 40 42 39 36 45 40 38 35 33 34 34 35 36 37 38 41 40
85 88 84 80 81 83 93 94 87 75 88 90 87 72 73 71 66 68 66 64 65 64 69 73 60 58 50 59 60 50 41 36 35 32 32 31 31 35 38 37 36 39 42 47
83 82 81 81 81 87 94 99 97 92 92 94 98 84 80 75 71 72 75 74 74 70 61 65 66 74 60 63 52 45 49 48 42 36 40 39 39 41 48 44 44 42 43 45
88 86 84 86 94 94 94 97 95 89 95 93 100 99 83 77 77 80 80 78 82 72 75 74 70 76 73 69 56 56 60 58 55 53 53 49 46 46 51 52 52 58 54 51
90 89 88 94 94 95 95 98 92 90 96 96 100 100 92 76 84 88 85 84 81 83 79 83 77 80 77 77 69 60 55 56 58 60 60 58 57 58 54 56 56 55 54 54
94 91 96 96 98 99 98 96 92 93 90 99 100 99 98 80 89 87 87 82 86 84 83 82 78 81 88 72 67 60 58 66 69 66 61 59 64 61 60 59 58 56 56 54
92 92 97 100 100 97 98 93 96 95 97 98 100 88 96 84 89 93 90 87 87 98 84 87 90 82 76 69 66 63 64 69 71 89 75 70 71 69 69 64 61 58 56 54
98 100 100 99 90 96 97 100 100 100 100 100 97 86 93 85 91 89 86 95 92 99 88 88 89 83 75 69 67 67 69 67 69 74 75 76 76 78 72 67 64 64 63 62
98 98 94 94 98 100 98 100 100 98 96 99 99 91 81 89 84 91 98 98 95 97 88 95 89 76 75 72 71 70 68 65 66 68 71 73 64 65 69 70 76 71 72 73
93 98 100 100 99 96 92 97 98 99 99 99 99 99 97 98 98 100 100 99 96 86 94 88 77 75 74 74 74 72 69 64 63 62 65 70 61 58 60 59 58 56 54 52
95 97 96 95 96 96 94 93 95 98 99 98 98 99 98 100 100 98 95 94 86 96 95 88 84 79 76 72 71 68 72 65 64 79 77 75 66 58 57 54 52 50 50 51
96 92 95 96 94 95 96 96 92 97 100 99 99 99 96 99 98 97 94 96 94 87 87 92 85 80 74 72 69 65 67 68 69 69 78 82 77 58 54 54 54 50 50 48
91 95 96 94 89 94 86 91 96 97 98 100 99 99 98 97 96 96 96 93 91 93 92 86 75 77 74 72 70 66 65 62 62 62 68 74 72 61 57 56 53 51 49 52
85 97 94 95 92 90 82 77 77 84 95 96 95 93 95 96 96 95 94 93 94 92 89 80 74 74 72 71 67 66 64 62 63 66 66 72 77 80 73 65 56 58 54 60

GFSNW_sfc_rhum_183.txt.gz
RH
81 82 91 84 78 82 85 66 63 70 61 66 49 59 47 58 39 40 42 45 40 36 34 35 31 33 31 30 36 46 43 45 56 40 48 50 55 62 61 94 69 53 65 49
78 82 82 89 82 85 59 58 50 67 66 69 59 45 53 47 42 40 43 44 42 38 40 39 30 32 32 36 38 38 36 44 54 43 58 56 64 52 58 73 51 59 57 50
74 77 84 89 88 84 66 57 64 78 84 58 62 45 45 44 46 41 39 38 37 40 38 33 34 34 34 39 40 56 46 40 44 44 37 35 47 60 60 60 82 63 59 43
70 74 79 83 91 89 76 54 43 43 82 76 63 48 42 42 42 45 40 39 40 35 34 31 31 31 30 35 45 43 44 48 44 39 37 35 38 37 51 71 58 51 34 35
71 70 77 80 85 91 93 60 49 48 47 42 51 59 48 48 40 35 40 43 30 34 36 28 26 28 29 32 37 36 36 44 37 48 27 32 40 33 33 44 52 51 47 45
71 73 76 78 80 93 98 79 53 58 50 39 44 44 48 41 36 33 28 36 34 38 34 29 28 29 30 34 39 40 41 42 41 42 32 36 36 26 27 34 32 32 34 27
73 74 76 76 79 84 97 88 66 60 52 40 39 37 34 39 38 34 37 36 36 40 37 38 38 37 38 37 40 39 42 42 44 60 38 50 32 25 31 31 28 26 25 27
71 73 74 76 76 79 96 96 89 77 72 36 32 38 40 35 34 43 38 41 36 37 40 41 37 39 42 39 39 41 42 43 48 56 35 21 28 25 28 27 25 22 24 26
75 75 76 78 78 76 83 89 93 82 88 68 30 36 36 42 39 39 46 51 44 44 42 39 33 26 27 33 46 45 45 45 49 36 41 26 29 25 23 25 25 24 24 28
74 77 78 78 78 81 82 84 79 96 97 69 36 41 41 32 31 33 48 57 57 48 46 49 33 27 33 33 31 54 52 46 50 40 39 24 24 26 28 31 32 27 23 28
78 81 83 83 80 79 83 82 72 95 94 78 44 41 46 39 37 36 49 50 55 57 52 40 40 35 30 33 26 30 31 34 36 34 39 49 27 30 30 28 30 29 26 29
80 83 82 80 81 81 78 95 70 76 98 89 55 44 42 46 48 41 48 41 45 42 41 45 43 46 38 28 26 30 34 29 30 29 30 33 32 30 30 32 30 31 29 32
82 83 87 88 86 86 77 87 77 87 94 95 80 61 51 53 51 49 45 46 40 46 48 46 50 49 41 35 32 29 30 34 34 34 32 32 30 32 31 29 31 33 33 31
82 85 88 85 84 86 87 91 79 86 84 98 86 54 60 53 54 55 53 52 53 50 56 55 52 47 44 38 38 34 36 38 34 33 31 30 33 32 34 34 35 35 38 35
84 88 89 87 89 87 89 82 81 75 87 96 81 65 62 58 57 58 55 50 53 53 64 70 57 55 43 47 50 42 36 32 34 33 30 30 32 33 36 37 35 35 37 41
88 90 85 91 92 92 90 96 91 77 78 97 99 76 69 66 60 60 58 57 58 56 52 61 59 66 59 60 50 42 40 42 41 37 43 42 40 39 43 41 43 41 39 39
87 93 83 91 90 87 84 83 92 79 83 98 100 100 89 69 70 70 70 67 69 60 67 67 60 69 67 65 57 54 51 50 49 49 48 46 44 45 46 47 46 51 48 43
88 92 84 83 79 80 92 93 86 80 91 99 100 99 99 88 97 97 75 82 73 74 72 73 68 76 69 74 59 56 50 48 50 53 53 53 51 50 49 50 49 49 48 48
91 91 86 92 92 99 98 95 92 86 95 100 100 99 99 98 99 97 96 85 88 78 79 73 72 76 85 65 61 56 54 57 61 59 56 52 57 56 57 54 52 51 51 49
92 92 93 100 98 95 94 98 99 99 100 100 100 99 98 98 99 97 91 79 87 100 82 80 86 77 69 62 58 56 57 62 63 92 80 75 74 65 62 64 58 55 51 50
98 100 100 97 95 95 98 100 100 100 100 100 99 89 95 90 96 90 82 95 90 100 90 86 88 81 74 62 59 59 60 59 62 67 68 67 69 74 69 63 64 63 60 64
99 99 95 97 99 100 100 99 100 100 99 100 98 95 89 94 82 94 96 98 93 98 84 89 88 78 73 65 65 63 59 57 60 62 65 68 61 58 64 70 78 76 76 78
97 99 100 100 99 97 93 95 98 98 100 100 94 97 88 96 88 98 96 94 96 80 92 87 78 74 64 65 69 68 60 57 59 60 65 62 57 58 57 57 56 51 51 49
98 98 94 96 93 90 90 91 95 98 99 98 98 99 99 99 97 96 95 94 82 94 93 85 80 70 67 65 64 64 65 60 63 83 81 76 69 59 57 55 48 48 48 51
97 94 95 93 89 90 94 97 95 97 99 99 98 99 87 100 98 87 86 93 90 82 86 91 82 74 70 66 63 61 63 64 72 71 82 84 80 58 54 54 55 51 50 49
95 91 94 94 92 96 93 94 95 96 98 99 99 99 94 95 91 88 88 85 84 90 93 83 71 73 68 67 64 60 56 56 56 60 67 76 75 62 57 55 55 51 50 54
93 96 87 92 91 88 81 71 87 93 92 95 91 91 96 95 92 89 90 93 93 93 86 75 68 67 65 62 64 63 61 57 59 64 66 72 75 81 79 71 58 61 58 68

GFSNW_sfc_rhum_189.txt.gz
RH
72 70 71 75 84 89 91 91 86 84 82 92 96 94 68 63 53 51 50 55 58 56 50 49 48 48 46 42 50 62 58 70 86 63 56 62 69 83 78 96 92 96 97 87
76 75 73 76 79 88 97 91 82 85 86 98 97 79 68 60 58 54 56 59 56 53 55 54 47 44 46 45 48 57 58 70 88 61 71 69 79 69 72 83 95 90 97 80
74 79 75 76 79 84 98 95 86 96 96 96 91 91 79 67 63 57 54 53 51 56 58 52 54 46 49 44 50 59 55 63 60 66 45 54 55 63 69 76 98 87 93 77
66 74 80 73 74 78 99 99 86 72 97 96 90 89 82 77 75 60 55 59 56 55 60 49 49 48 41 55 62 57 58 80 72 62 55 54 55 52 54 81 80 88 72 80
62 69 78 79 73 75 98 98 94 81 72 62 92 92 90 79 72 70 61 62 52 57 61 45 44 46 48 41 60 59 65 76 68 68 50 53 56 50 49 53 66 81 78 77
60 67 73 80 76 79 98 96 94 96 85 72 64 64 58 68 66 59 54 55 58 58 53 49 47 48 46 44 51 60 60 72 74 77 64 65 56 43 46 45 47 53 65 55
64 68 74 76 78 79 96 97 95 98 96 87 81 70 64 65 57 60 53 44 50 45 53 48 49 58 55 54 53 51 63 70 76 85 70 60 43 36 40 46 41 40 41 49
66 70 76 72 72 74 98 96 94 95 96 82 84 69 73 64 57 56 48 45 44 50 54 57 60 56 60 55 55 55 58 65 81 84 83 52 43 36 43 44 45 36 44 47
72 73 76 69 70 71 93 97 97 95 94 75 69 77 84 86 70 65 54 61 60 61 60 65 67 49 50 58 68 57 59 62 74 78 72 54 42 39 35 40 50 38 42 48
76 74 68 68 70 69 83 92 89 96 92 73 70 74 91 78 75 75 66 72 69 66 77 79 78 60 42 53 66 78 78 74 82 81 77 58 38 39 42 54 47 45 41 47
72 64 65 66 68 70 84 87 80 95 96 82 69 62 65 51 56 92 64 69 71 81 83 82 72 71 50 52 49 68 70 77 73 73 73 60 40 42 42 41 48 45 44 47
63 62 62 62 63 69 74 94 75 76 98 84 69 60 54 54 67 86 79 79 77 70 74 83 80 68 66 52 48 45 52 48 52 44 47 44 42 42 44 44 44 48 46 48
60 60 60 60 61 61 69 87 84 88 97 96 92 80 60 60 72 58 82 81 67 63 65 73 71 73 65 58 54 45 42 45 43 41 42 42 41 41 43 44 46 47 45 46
59 59 59 60 61 62 68 90 83 91 96 99 82 66 67 51 52 58 73 69 63 68 78 74 79 70 60 62 55 48 45 47 44 45 43 44 47 46 45 44 43 46 47 46
60 60 62 63 64 65 75 85 83 83 96 98 93 67 61 60 60 57 66 75 70 74 85 86 87 80 64 66 70 67 48 43 49 46 43 43 47 49 49 50 51 53 51 51
62 65 66 66 66 69 87 97 85 79 88 98 98 90 83 65 65 64 60 57 67 78 84 84 85 77 65 82 74 51 47 53 53 48 61 55 56 56 58 57 60 63 55 56
64 71 74 74 73 83 96 94 90 83 86 97 99 99 98 82 83 89 80 75 77 72 82 84 82 86 80 91 78 59 58 62 69 69 61 63 63 64 60 61 60 59 59 60
68 74 74 74 75 82 96 89 87 88 96 98 99 99 99 83 96 96 80 92 92 94 89 91 72 92 91 96 74 68 63 64 69 71 67 65 62 65 69 64 61 62 63 64
74 74 76 87 96 98 96 90 89 89 96 99 99 92 96 99 99 98 98 88 96 99 98 89 81 86 90 77 76 71 62 69 72 71 70 68 72 73 74 69 69 67 66 68
70 93 99 100 98 92 89 90 99 100 100 100 99 94 98 97 98 99 99 99 98 99 98 95 99 98 82 73 73 65 68 72 72 90 87 84 83 78 83 77 70 68 67 68
98 99 99 99 90 97 99 100 99 99 100 99 97 94 98 98 98 98 98 99 99 99 98 97 98 98 90 75 74 70 71 73 83 81 82 80 82 86 82 80 78 72 69 73
92 87 95 99 100 100 99 94 99 99 94 99 97 98 96 99 98 99 99 99 99 98 97 99 98 98 88 81 78 74 68 75 78 82 82 76 74 78 84 87 89 86 81 82
99 99 99 100 98 98 98 97 98 99 99 99 99 99 98 99 99 100 99 99 98 98 99 98 99 90 84 83 78 77 72 71 78 80 76 73 73 73 76 77 78 74 72 74
99 98 96 98 96 98 98 98 98 98 99 99 96 99 98 99 99 99 98 98 99 98 98 97 97 96 95 87 78 77 81 78 83 90 86 79 75 72 70 67 66 64 67 70
98 98 97 97 97 98 98 98 98 98 99 100 100 100 99 100 98 98 98 98 98 97 97 97 97 97 93 85 80 78 80 81 83 81 87 87 83 72 72 71 70 67 65 65
99 95 96 90 96 96 96 97 97 98 98 100 100 99 98 98 98 96 97 96 97 98 98 96 94 92 83 74 71 70 70 73 77 80 80 86 86 76 74 72 70 66 64 67
97 98 96 96 97 97 96 96 95 96 99 98 98 95 97 95 94 96 98 98 97 96 96 87 80 80 78 74 73 73 72 72 72 77 79 85 90 88 82 79 76 72 70 78

GFSNW_sfc_rhum_192.txt.gz
RH
74 74 73 74 78 89 88 91 95 86 85 87 96 94 75 63 57 53 52 60 58 60 57 58 58 54 46 46 55 65 62 75 93 76 58 68 79 85 88 97 87 98 96 86
72 74 75 73 79 85 98 97 84 91 89 89 97 84 75 68 63 57 60 60 59 60 62 62 55 52 45 48 52 57 58 71 88 54 61 72 82 78 80 86 88 91 94 79
69 70 74 75 72 78 98 95 95 95 97 96 90 94 84 75 60 62 58 58 59 62 65 60 60 55 50 51 52 61 58 67 63 61 44 51 54 57 68 81 94 80 81 78
65 65 71 76 72 75 97 97 94 82 96 96 94 88 86 80 72 66 59 62 60 59 64 57 60 56 50 52 59 63 60 77 80 68 60 59 62 63 61 76 70 85 72 82
59 65 70 71 76 74 96 98 94 92 94 71 94 93 89 83 75 71 73 64 56 59 65 54 54 51 58 51 65 61 68 73 73 74 58 62 61 59 60 60 62 77 72 77
61 67 70 72 76 78 97 97 91 98 87 91 77 76 84 72 71 66 62 63 68 62 56 53 52 54 53 49 53 61 62 78 78 81 68 67 54 42 43 47 50 59 71 58
62 69 70 71 75 80 95 96 97 96 87 84 82 74 70 72 69 76 62 62 62 46 48 51 53 59 60 60 61 54 65 70 77 87 72 57 41 38 38 48 45 45 45 58
64 67 69 70 74 78 97 97 92 93 96 80 86 74 81 79 81 80 74 64 52 49 56 62 65 54 58 63 68 68 61 67 77 88 88 54 45 38 41 44 43 39 47 52
71 70 72 76 74 76 97 96 96 96 97 81 64 66 66 76 80 74 71 61 62 62 64 67 78 67 45 50 78 67 67 67 72 86 82 59 38 39 36 40 49 41 47 52
73 79 76 74 70 70 88 95 87 95 98 74 71 81 77 76 82 84 84 83 76 67 78 76 77 79 50 54 69 85 84 86 84 87 90 64 47 38 40 50 39 43 46 51
71 69 71 67 67 68 86 94 92 91 93 77 70 66 77 68 63 81 86 86 80 87 86 82 76 84 57 53 54 76 78 88 94 85 86 71 36 43 41 38 50 45 46 50
61 62 63 63 63 63 70 93 83 85 96 80 71 66 59 61 57 90 84 74 92 84 84 88 87 77 76 59 50 70 57 53 68 59 55 42 39 39 44 45 43 45 46 48
58 59 59 59 60 60 65 87 91 95 94 87 87 80 66 60 62 55 77 69 74 88 67 81 82 77 72 67 60 54 47 51 50 46 43 45 43 39 38 39 42 45 46 46
57 58 58 59 60 61 62 92 89 91 91 98 77 55 72 58 62 62 61 61 60 75 80 94 98 80 66 68 58 54 46 54 48 51 46 48 44 43 46 46 46 47 46 47
58 59 60 60 58 62 70 83 87 86 94 88 88 68 63 70 66 70 67 72 72 71 81 92 98 87 76 74 78 65 52 45 50 46 42 40 43 49 51 52 54 52 50 50
59 59 59 61 62 64 85 83 79 76 82 91 94 75 73 67 71 74 72 69 75 83 81 89 82 74 71 80 81 53 45 48 46 45 58 54 55 60 61 57 62 62 61 55
59 59 60 64 67 81 90 81 84 76 81 99 98 97 94 68 67 77 81 73 74 75 80 83 74 78 81 80 89 59 52 58 64 68 61 67 66 62 62 62 62 62 64 65
59 60 65 72 74 76 85 77 72 68 85 99 99 95 97 86 97 98 80 82 83 89 90 76 84 95 90 98 78 59 55 66 68 65 66 67 67 66 70 69 66 66 66 68
60 69 72 80 90 94 83 77 71 76 94 99 99 85 88 97 99 93 96 84 99 95 92 79 72 78 95 75 76 73 73 69 64 71 67 72 73 74 72 74 72 71 70 71
67 82 92 97 99 86 92 99 99 100 100 100 99 94 98 98 99 99 99 99 98 99 96 95 99 79 56 68 76 70 72 75 76 85 81 83 84 81 81 78 74 71 71 73
94 100 98 95 76 94 99 100 99 100 99 99 98 97 98 98 97 98 98 99 99 98 90 97 96 96 66 80 79 79 79 78 79 76 76 78 78 82 84 82 81 74 75 78
87 82 82 95 99 99 99 95 97 99 96 99 98 97 93 99 96 99 99 99 99 97 98 97 98 60 90 80 82 84 83 84 84 76 78 78 82 84 86 88 89 84 82 84
98 100 98 99 97 97 98 95 97 98 99 100 99 99 98 99 99 100 99 99 97 99 99 97 97 92 94 91 88 88 85 82 81 76 74 73 77 80 86 88 85 77 75 74
99 98 96 98 96 97 97 97 97 95 99 98 99 99 99 100 99 99 99 97 99 99 99 96 98 96 92 80 83 86 92 83 80 87 84 81 77 74 74 72 71 73 77 75
99 98 96 97 96 97 98 97 98 98 99 99 100 100 99 99 99 98 97 98 97 96 96 97 97 98 97 95 92 92 94 93 85 78 83 87 84 74 73 70 68 68 71 71
99 98 97 89 97 96 97 96 97 98 98 99 100 99 98 98 98 97 96 97 96 96 97 97 96 97 97 96 95 94 88 78 74 77 79 85 81 76 72 69 67 65 65 70
97 98 96 96 98 96 96 96 96 97 97 98 98 97 98 97 96 96 97 97 97 97 96 96 96 96 96 94 85 72 69 70 70 75 78 81 83 81 73 73 74 74 75 83

GFSNW_sfc_rhum_195.txt.gz
RH
73 74 76 74 75 84 88 96 96 85 86 90 96 94 78 66 60 55 56 58 57 64 66 63 63 58 49 48 57 70 70 76 94 70 61 72 82 85 89 90 89 98 97 71
66 68 72 76 73 76 99 98 89 93 91 96 94 85 82 73 65 63 64 63 60 63 71 70 61 57 47 53 58 64 63 69 81 54 53 76 86 84 87 87 90 86 93 74
65 66 70 74 75 72 97 97 93 93 97 95 92 94 79 76 62 68 63 61 64 67 68 65 67 63 51 54 54 58 56 69 62 60 45 51 56 59 75 85 96 76 72 60
58 64 63 66 76 73 96 97 93 85 92 89 81 78 88 83 71 67 63 65 64 65 69 64 64 60 53 49 58 72 64 80 78 68 64 63 65 66 65 74 67 82 59 74
57 61 66 64 71 76 96 99 98 89 95 82 98 92 92 86 77 73 74 68 67 70 71 62 66 59 65 58 69 73 70 76 77 69 60 63 64 55 62 64 63 71 67 72
59 63 70 70 71 79 97 97 94 95 94 88 85 78 88 79 74 67 70 66 72 72 64 60 58 57 53 50 52 67 68 84 79 76 69 63 58 54 45 44 54 58 65 58
60 64 69 66 68 80 94 96 97 96 91 85 90 81 84 84 75 84 74 74 78 60 53 56 58 66 63 58 57 58 70 75 79 88 72 62 40 43 36 40 43 47 51 48
64 63 64 65 70 76 97 98 94 97 96 91 78 72 78 79 72 74 84 72 73 66 62 71 72 69 54 64 71 77 63 72 79 86 92 58 42 43 41 45 37 38 39 55
64 66 69 72 74 77 96 97 96 95 99 92 71 76 69 75 70 64 57 46 59 73 75 76 81 84 62 54 75 74 71 68 74 91 88 62 38 42 39 43 47 39 45 52
69 73 75 76 77 77 91 92 89 93 99 91 70 82 84 78 82 86 88 86 83 65 86 87 90 79 64 80 66 87 85 88 83 84 92 75 50 37 42 43 36 46 48 52
66 65 66 66 68 70 89 93 94 95 100 94 76 72 81 76 79 82 68 60 86 85 87 84 84 88 74 72 61 80 77 89 95 91 95 83 42 45 41 35 47 43 47 52
58 59 60 61 61 62 68 95 88 90 97 96 78 70 60 63 70 71 73 69 74 89 96 90 87 80 87 68 65 77 65 58 73 72 67 48 44 42 41 46 41 45 44 47
57 57 57 57 57 57 63 86 90 92 92 80 80 79 64 58 61 62 85 70 64 82 86 96 97 94 79 80 75 62 56 58 58 57 46 51 46 43 44 44 42 44 47 45
57 57 57 58 58 58 60 88 87 88 91 97 77 51 69 58 56 66 67 68 63 76 85 82 81 96 76 79 66 61 52 55 54 54 43 46 45 46 42 42 44 48 50 51
57 58 58 58 59 59 67 87 90 87 90 97 90 69 56 64 66 69 69 75 76 79 88 91 91 85 97 90 84 82 59 54 56 55 42 42 42 46 48 47 49 50 51 54
58 58 58 58 59 59 83 90 88 77 83 93 98 77 69 53 47 55 76 78 80 88 94 92 79 65 78 97 93 55 50 54 49 47 69 54 55 56 58 54 56 59 57 54
58 58 59 59 59 72 85 87 80 80 84 99 97 98 89 66 63 68 69 75 86 97 96 97 88 91 78 80 78 49 52 54 58 66 74 64 64 55 59 66 66 65 65 65
59 59 59 59 61 67 79 72 70 81 95 99 98 94 98 86 96 94 82 93 96 99 95 96 81 76 79 93 63 68 56 47 43 56 66 57 73 67 65 69 70 74 66 68
61 59 61 73 88 95 94 72 70 77 84 96 98 76 78 89 97 89 98 86 98 97 97 82 79 85 96 73 58 54 49 53 51 55 67 74 72 66 70 73 72 71 73 72
61 76 84 89 94 84 71 91 100 100 100 98 91 93 86 97 98 99 99 99 98 98 91 88 95 86 59 54 53 65 66 54 58 82 88 83 80 78 73 75 73 73 71 76
94 99 97 93 77 88 92 99 99 98 98 98 83 76 85 97 98 98 97 99 99 98 92 94 97 81 57 51 50 46 55 68 68 59 59 70 74 81 77 80 76 76 78 81
86 81 77 91 99 98 99 98 99 98 96 99 99 92 78 98 98 99 99 99 99 96 94 98 98 65 76 72 56 52 48 80 85 82 83 82 80 83 80 83 84 82 85 85
92 93 99 99 94 97 97 96 98 98 98 99 99 99 98 99 100 100 99 99 96 98 98 94 96 92 88 88 83 90 86 87 86 80 80 81 87 84 84 87 83 80 77 76
91 94 96 97 97 97 96 96 96 93 96 96 97 98 99 100 99 99 99 94 99 97 96 98 97 96 94 91 90 85 92 86 87 90 88 85 79 78 77 79 78 74 75 76
92 98 96 97 95 95 97 97 98 92 97 98 98 99 100 99 99 99 98 99 98 97 99 97 96 97 97 97 97 90 87 85 86 82 86 86 82 75 72 72 74 73 70 72
99 98 99 91 97 95 96 92 94 96 98 97 98 98 99 98 98 98 97 98 98 98 98 97 96 97 97 97 97 97 96 96 96 95 94 89 77 71 72 72 70 70 70 75
97 98 98 98 97 97 96 93 93 97 97 97 98 98 97 98 97 97 97 98 97 97 96 95 96 96 97 96 96 95 96 95 95 95 89 81 77 74 71 75 75 76 80 84